SCP
-0 -0 0 0 0 0 0 0 0 0 0 0 0 0 0 0 0 0 0 0 0 0 0 0 0 0 0 0 0 0 0 0 0 0 0 0 0 0 0 0 0 0 0 0 0 0 0
0 0 0 0 0 0 0 0 0 0 0 0 0 0 0 0 0 0 0 0 0 0 0 0 0 0 0 0 0 0 0 0 0 0 0 0 0 0 0 0 0 0 0 0 0 0 0
0 -0 0 0 0 0 0 0 0 0 0 0 0 0 0 0 0 0 0 0 0 0 0 0 0 0 0 0 0 0 0 0 0 0 0 0 0 0 0 0 0 0 0 0 0 0 0
0 0 0 0 0 0 0 0 0 0 0 0 0 0 0 0 0 0 0 0 0 0 0 0 0 0 0 -0 0 0 0 0 0 0 0 0 0 0 0 0 0 0 0 0 0 0 0
-0 -0 -0 -0 0 0 0 0 0 0 0 0 0 0 0 0 0 0 0 0 0 0 0 0 0 0 0 0 0 0 0 0 0 0 0 0 0 0 0 0 0 0 0 0 0 0 0
-0 -0 -0 -0 -0 -0 -0 0 0 0 0 0 0 0 0 0 0 0 0 0 -0 -0 0 0 0 0 0 0 0 0 0 0 0 0 0 0 0 0 0 0 0 0 0 0 0 0 0
-0 -0 -0 -0 -0 0 0 0 0 0 0 0 0 0 0 0 0 0 0 -0 -0 -0 -0 0 0 0 0 0 0 0 0 0 0 0 0 0 0 0 0 0 0 0 0 0 0 0 0
-0 -0 -0 0 0 0 0 0 0 0 0 0 0 0 0 0 0 0 -0 0 0 0 0 0 -0 -0 -0 0 0 0 0 0 0 0 0 0 0 -0 0 0 0 0 0 0 0 0 0
-0 -0 -0 -0 -0 0 0 0 0 0 0 0 0 0 0 0 0 -0 0 0 0 0 -0 0 0 0 0 0 0 0 0 0 0 0 0 0 0 0 0 0 0 0 0 0 0 0 0
-0 -0 -0 -0 -0 0 -0 -0 -0 -0 -0 0 0 0 0 0 -0 0 0 0 0 0 -0 -0 0 0 0 -0 0 -0 0 0 0 0 0 0 0 0 0 0 0 0 0 0 0 0 0
-0 -0 -0 -0 0 -0 -0 -0 -0 -0 -0 0 0 0 0 0 0 0 0 0 0 0 -0 0 0 0 0 0 0 0 0 0 0 0 0 0 0 0 0 0 0 0 0 0 0 0 0
-0 -0 0 0 0 -0 -0 -0 -0 0 0 0 0 0 0 0 0 0 0 0 0 0 0 0 0 0 0 0 0 0 0 0 0 0 0 0 0 0 0 0 0 0 0 0 0 0 0
-0 -0 0 0 0 0 0 0 0 0 0 0 0 -0 0 0 0 0 0 0 0 0 0 0 0 0 0 0 0 0 0 0 0 0 0 0 0 0 0 0 0 0 0 0 0 0 0
0 0 0 0 0 0 0 0 0 0 0 0 0 0 0 0 0 0 0 0 0 0 0 0 0 0 0 0 0 0 0 0 0 0 0 0 0 0 0 0 0 0 0 0 0 0 0
0 0 0 0 0 0 0 0 0 0 0 0 0 0 0 0 0 0 0 -0 -0 -0 -0 0 0 0 0 0 0 0 -0 0 0 0 0 0 0 0 0 0 0 0 0 0 0 0 0
0 0 0 0 0 0 0 0 0 0 0 0 0 0 0 0 0 0 0 -0 -0 -0 0 -0 -0 0 0 0 0 0 -0 0 0 0 0 0 0 0 0 0 0 0 0 0 0 0 0
0 0 0 0 0 0 0 0 0 0 0 0 0 0 0 0 0 0 -0 0 0 0 0 -0 -0 0 0 0 0 0 -0 -0 0 0 0 0 0 0 0 0 0 0 0 0 0 0 0
0 0 0 0 0 0 0 0 0 0 0 0 0 0 0 0 0 0 0 0 -0 0 0 0 -0 0 -0 0 0 0 -0 -0 -0 0 0 0 0 0 0 0 0 0 0 0 0 0 0
0 0 0 0 0 0 0 0 0 0 0 0 0 0 0 0 0 0 0 0 0 0 -0 -0 -0 -0 -0 -0 0 0 -0 -0 -0 0 0 0 0 0 0 0 0 0 0 0 0 0 0
0 0 0 0 0 0 0 0 0 0 0 0 0 0 0 0 0 0 0 0 -0 0 0 -0 -0 -0 -0 -0 0 0 0 -0 -0 -0 0 0 0 0 0 0 0 0 0 0 0 0 0
0 0 0 0 0 0 0 0 0 0 0 0 0 0 0 0 0 0 0 0 0 0 0 0 0 -0 -0 -0 -0 0 0 0 -0 -0 -0 0 0 0 0 0 0 0 0 0 0 0 0
0 0 0 0 0 0 0 0 0 0 0 0 0 0 0 0 0 0 0 0 0 -0 0 0 0 -0 -0 -0 -0 -0 0 0 0 0 0 0 0 0 0 0 0 0 0 0 0 0 0
0 0 0 0 0 0 0 0 0 0 0 0 0 0 0 0 0 0 0 0 0 0 0 0 -0 -0 -0 -0 -0 -0 -0 0 0 0 0 0 0 0 0 0 0 0 0 0 0 0 0
0 0 0 0 0 0 0 0 0 0 0 0 0 0 0 0 0 0 0 0 0 0 0 -0 -0 0 -0 -0 -0 -0 -0 -0 0 0 0 0 0 0 0 0 0 0 0 0 0 0 0
0 0 0 0 0 0 0 0 0 0 0 0 0 0 0 0 0 0 0 0 0 0 0 -0 0 0 -0 -0 -0 -0 -0 -0 0 -0 -0 0 0 0 0 0 0 0 0 0 0 0 0
0 0 0 0 0 0 0 0 0 0 0 0 0 0 0 0 0 0 0 0 0 0 0 0 0 0 0 0 -0 -0 0 0 0 0 -0 -0 0 0 0 0 0 0 0 0 0 0 0
0 0 0 0 0 -0 0 0 0 0 0 0 0 0 0 0 0 0 0 0 0 0 0 -0 0 0 0 0 0 0 0 0 0 0 -0 -0 0 0 0 0 0 0 0 0 0 0 0
0 0 0 0 0 0 -0 -0 -0 0 0 0 0 0 0 0 0 0 0 0 0 0 0 -0 0 0 0 0 0 0 0 0 0 0 0 0 0 0 0 0 0 0 0 0 0 0 0
0 0 0 0 0 0 0 -0 0 0 0 0 0 0 0 0 0 0 0 0 0 -0 -0 0 0 0 0 0 0 0 0 0 0 0 0 0 0 0 0 0 0 0 0 0 0 0 0
Wind_Speed_500mb
29 28 29 30 30 30 31 30 28 29 31 32 33 33 35 35 36 37 38 39 42 42 35 33 35 33 24 23 43 25 21 19 12 14 46 65 61 61 56 54 62 61 50 64 57 65 59
32 31 32 33 34 35 33 31 30 32 33 33 35 34 35 36 38 38 37 37 38 40 41 40 36 34 23 41 27 46 53 34 27 16 21 53 42 62 58 66 62 60 64 70 68 64 55
32 32 33 34 35 35 35 33 32 33 33 33 33 35 38 40 42 43 41 40 40 39 40 42 43 30 35 60 39 34 41 60 53 29 29 32 59 29 49 46 63 64 51 47 48 53 53
32 32 33 35 36 37 38 38 38 36 36 35 35 36 40 43 44 42 41 43 42 40 37 35 34 21 29 31 36 45 44 60 43 49 39 31 35 54 43 36 32 41 51 49 50 46 53
34 34 35 35 37 38 38 39 41 40 39 39 40 37 40 40 40 42 43 41 37 32 28 26 14 22 31 22 22 28 30 41 36 38 37 35 33 45 37 39 35 49 52 64 50 44 36
35 36 38 40 41 43 44 44 44 42 41 40 40 40 43 47 46 48 47 38 27 18 11 4 12 15 31 26 10 14 19 20 29 34 34 44 36 29 39 41 58 50 53 54 55 41 30
38 38 40 42 44 47 48 47 47 44 43 44 44 46 49 50 49 47 41 29 14 14 12 28 24 37 44 42 32 28 15 12 23 41 47 57 41 55 84 69 54 51 59 60 46 44 43
42 42 44 46 48 49 49 47 47 45 45 45 46 47 49 50 50 47 21 19 10 13 28 43 61 65 67 59 44 46 27 22 28 44 52 40 60 95 58 57 59 58 58 61 48 46 46
45 45 45 48 49 50 48 45 46 46 47 47 48 49 51 51 48 23 25 12 7 21 18 41 32 37 33 25 39 54 42 51 37 40 57 68 86 53 64 60 61 62 61 50 55 40 45
44 46 48 51 53 52 51 45 44 48 50 51 52 53 55 51 20 20 18 7 13 18 11 13 9 8 7 11 13 34 27 55 40 49 48 63 69 58 64 70 67 62 50 49 51 41 46
46 46 48 51 53 53 50 47 45 48 52 54 56 56 59 41 30 17 13 11 12 7 12 11 13 5 1 13 21 12 18 45 56 46 32 62 58 65 62 87 61 66 44 46 49 45 49
44 47 48 51 54 55 53 49 47 51 56 58 57 60 43 16 12 15 17 15 6 9 19 2 8 5 9 3 9 21 21 26 41 54 47 56 41 49 84 41 59 44 33 36 36 35 42
43 46 49 52 55 56 56 54 52 56 60 62 58 41 23 16 10 18 6 9 11 16 14 0 11 14 25 3 17 10 19 22 25 41 53 43 58 39 41 57 51 53 43 21 26 29 34
43 46 49 52 55 56 56 57 57 58 60 62 55 16 18 11 18 10 2 7 15 8 10 30 21 34 33 8 5 16 28 24 29 48 40 42 39 62 43 61 44 60 54 27 37 31 29
45 48 50 52 54 56 57 57 60 58 60 62 43 6 18 23 13 6 8 10 14 20 16 20 30 32 29 8 12 13 7 11 19 40 38 36 56 60 44 53 55 59 48 48 22 20 15
47 50 51 52 53 56 57 57 60 59 59 61 26 4 22 18 5 3 6 9 10 18 26 27 31 22 28 21 17 18 5 5 24 27 27 12 23 49 69 48 54 56 47 41 30 35 32
48 50 52 54 54 56 57 55 56 60 57 57 16 6 17 17 6 4 7 10 19 23 25 14 21 25 29 29 31 25 3 8 9 26 24 27 16 32 55 47 55 36 47 38 35 26 29
49 50 52 55 56 56 54 54 56 54 55 47 16 5 13 10 6 3 9 18 23 22 21 17 17 19 23 23 23 10 3 7 16 17 15 7 13 24 52 49 49 55 43 53 25 40 21
50 51 53 55 56 55 52 55 54 49 47 40 21 8 11 14 7 9 13 19 10 24 21 14 20 11 22 24 12 9 5 15 22 10 10 7 18 21 29 43 42 54 46 52 34 29 39
51 52 55 56 54 51 52 56 53 43 36 25 13 7 6 6 6 15 20 14 18 19 16 28 21 24 22 21 16 14 18 15 14 13 14 14 16 32 13 43 30 50 50 52 45 21 25
53 54 57 56 50 49 58 58 52 41 28 16 10 5 8 7 9 17 27 18 25 17 16 23 7 11 21 14 32 15 16 23 9 13 12 7 24 36 26 12 13 23 49 47 52 41 32
54 55 56 51 48 55 62 63 47 33 26 10 11 10 13 32 20 18 11 15 20 22 13 20 20 30 29 28 29 35 30 18 4 9 11 7 9 26 33 26 15 14 17 49 43 47 38
56 56 56 48 48 58 64 63 50 27 21 6 8 10 12 18 11 14 11 15 26 31 23 18 27 31 32 24 30 40 38 35 30 25 23 9 8 17 37 32 12 22 26 34 42 41 40
57 56 57 51 47 57 66 65 52 23 17 16 19 14 8 12 16 18 26 33 30 30 28 41 37 19 17 45 54 45 47 46 41 34 31 18 14 12 21 27 26 18 15 26 29 39 42
56 57 57 56 48 53 65 68 56 21 15 17 19 13 8 12 25 30 23 26 36 30 27 31 25 13 37 29 14 14 10 18 31 36 31 26 13 8 10 23 20 14 16 6 20 20 12
53 57 58 59 52 46 61 63 62 26 13 17 19 19 17 12 5 36 37 30 19 21 17 15 28 30 16 6 9 11 6 5 3 3 25 24 21 8 10 28 28 20 16 12 9 18 17
52 55 57 61 57 43 59 60 58 38 12 18 25 23 18 15 34 13 9 20 16 14 12 31 20 13 7 5 6 8 5 6 5 5 25 19 12 14 12 15 13 21 19 8 22 8 19
54 56 57 56 59 45 58 61 57 45 17 16 18 23 22 17 43 37 31 28 17 19 6 22 19 2 6 5 7 8 8 8 8 5 14 15 13 9 6 11 10 33 8 8 15 16 20
59 58 60 55 55 51 51 61 58 47 25 16 21 23 21 31 35 45 37 27 27 42 39 10 12 13 5 6 6 5 5 4 8 2 9 6 1 3 4 7 8 19 17 16 15 17 25
Wind_Direction_500mb
11 7 2 357 353 349 346 347 341 341 337 336 330 329 325 322 318 315 315 315 315 314 313 308 305 310 312 245 239 273 222 210 228 249 218 205 211 218 228 238 244 243 249 252 252 263 269
11 8 5 5 1 356 355 354 355 345 343 341 338 334 329 324 319 315 312 310 304 308 309 304 296 295 283 252 253 241 234 218 238 240 224 211 222 227 239 238 243 250 250 249 254 255 260
14 13 15 16 15 10 8 6 359 354 348 344 342 337 333 330 326 322 317 309 307 306 301 298 295 285 263 253 261 267 242 238 242 235 225 216 213 217 228 249 249 253 253 254 245 250 253
20 20 18 16 11 10 5 1 355 351 348 346 342 338 334 333 330 326 321 315 312 303 298 290 283 249 260 285 269 262 251 251 251 237 227 218 218 231 239 252 261 242 239 246 233 229 243
19 17 14 14 9 9 4 359 355 351 349 348 344 339 334 333 331 327 325 318 311 301 293 284 244 217 274 269 258 260 252 249 239 239 226 222 225 225 226 233 246 226 234 231 242 238 242
19 17 16 15 12 8 4 0 357 351 347 344 342 338 336 334 331 331 331 326 316 302 299 213 234 232 246 248 261 279 277 246 232 211 211 212 211 214 223 214 227 222 229 245 257 234 224
19 20 20 12 8 4 1 359 359 357 350 344 339 334 331 330 329 331 338 345 303 251 260 255 272 245 274 277 280 269 264 229 216 215 206 195 201 214 218 219 238 249 245 247 237 243 244
22 21 15 7 3 358 356 356 357 356 354 352 347 340 333 327 328 332 344 340 321 315 295 278 263 262 262 268 276 266 248 226 199 218 208 189 214 222 218 224 227 239 245 246 249 239 236
25 23 17 9 4 359 353 351 353 353 351 349 346 343 337 329 328 338 333 302 293 327 266 288 264 260 261 246 250 256 237 227 231 230 212 214 220 218 219 222 226 227 234 240 251 255 252
25 22 17 11 5 1 357 352 349 349 347 343 339 336 333 327 339 312 317 270 294 316 282 256 192 206 200 216 234 247 238 221 224 236 229 229 234 217 222 222 218 229 219 240 255 253 251
19 16 11 7 4 0 357 355 350 347 344 340 335 332 324 320 296 307 285 295 299 280 282 102 139 100 154 240 331 89 204 222 232 222 223 224 227 226 221 223 215 236 228 234 241 249 260
14 11 9 5 2 2 360 357 352 347 343 341 339 333 330 349 279 287 284 286 269 231 245 224 155 285 247 212 308 350 289 224 241 241 241 237 223 224 232 219 221 223 218 226 237 245 245
10 8 5 2 360 360 360 356 350 348 347 348 346 347 11 14 335 307 279 252 232 247 34 197 326 320 307 342 307 328 341 262 219 211 229 228 240 235 236 211 205 202 194 202 220 225 246
5 4 2 359 356 356 355 355 352 348 348 349 349 12 0 350 325 329 235 206 254 307 270 333 323 302 281 9 304 287 327 320 217 231 219 222 223 223 213 211 188 193 190 203 215 231 242
358 359 358 355 353 351 351 353 352 347 350 352 355 339 8 343 359 149 234 234 335 355 350 315 308 274 273 215 308 277 340 304 298 231 239 223 231 193 221 211 197 190 208 212 239 230 270
357 357 355 353 352 350 349 352 353 348 350 351 352 359 1 352 10 215 281 310 322 330 312 296 285 287 297 310 308 313 72 55 315 339 326 268 256 224 199 206 209 196 194 197 219 234 228
356 355 354 352 352 350 348 351 352 350 350 353 357 299 356 20 13 338 315 312 323 326 324 307 302 294 289 291 282 287 206 133 283 320 301 283 256 223 185 200 190 191 197 212 209 227 209
352 352 352 350 350 350 348 350 351 350 351 2 357 324 344 353 313 183 323 333 323 319 327 292 294 289 286 293 294 270 270 209 206 301 302 274 286 271 198 205 216 201 203 199 197 198 247
352 353 351 349 349 348 347 349 351 350 353 353 343 299 330 354 342 337 326 301 290 310 337 331 306 318 305 298 291 301 335 199 196 229 306 357 232 224 212 199 207 195 207 195 211 201 206
355 355 353 350 350 351 350 350 350 350 354 351 340 329 337 8 337 333 331 306 327 329 314 318 301 298 332 314 293 286 309 43 253 256 260 252 251 253 190 195 191 202 203 192 206 205 187
357 357 354 352 356 356 350 349 352 351 5 10 357 358 325 306 317 320 297 295 305 353 323 312 282 313 339 315 316 297 354 312 314 202 249 279 242 227 259 313 300 275 206 205 207 217 226
359 357 357 356 357 354 352 349 352 349 357 11 348 338 319 294 289 301 292 305 317 341 314 306 306 326 316 301 295 295 310 309 324 307 297 279 302 263 250 238 240 243 247 206 208 211 227
359 359 357 354 354 354 352 350 354 352 352 322 305 307 290 293 290 308 303 320 312 316 294 287 312 309 300 320 320 300 290 287 275 286 289 294 308 240 233 213 228 230 209 222 210 212 217
357 358 357 352 346 351 351 350 351 349 331 300 302 306 273 287 319 307 304 298 303 304 288 292 293 293 298 314 306 276 253 252 254 254 250 261 304 270 240 179 218 90 40 205 217 213 222
356 355 356 353 343 342 349 349 349 341 321 306 296 290 270 283 310 297 327 319 308 302 291 288 310 283 300 303 286 277 212 236 236 231 229 228 258 279 217 204 189 106 35 348 200 161 10
353 352 353 351 347 339 345 348 349 342 319 305 290 286 272 295 269 320 305 302 299 314 308 290 322 321 317 277 262 271 310 331 211 284 197 208 227 298 249 211 201 67 4 314 278 185 22
349 349 350 349 347 341 345 347 348 344 311 288 293 289 262 264 280 294 292 303 296 295 291 303 337 323 339 296 283 284 281 304 309 256 169 181 213 230 266 236 101 8 345 168 207 77 348
342 347 347 347 347 339 344 346 345 340 316 290 290 283 264 260 284 279 285 281 276 270 271 316 313 42 299 293 310 352 343 323 296 100 173 178 191 182 232 245 179 3 55 331 16 348 343
340 338 344 347 344 341 336 342 340 337 319 279 293 281 279 259 273 295 288 291 275 263 261 274 290 311 285 295 325 307 295 281 297 201 180 235 44 332 295 39 63 21 58 42 4 347 351
Wind_Speed_850mb
29 28 29 30 30 30 31 30 28 29 31 32 33 33 35 35 36 37 38 39 42 42 35 33 35 33 24 23 43 25 21 19 12 14 46 65 61 61 56 54 62 61 50 64 57 65 59
32 31 32 33 34 35 33 31 30 32 33 33 35 34 35 36 38 38 37 37 38 40 41 40 36 34 23 41 27 46 53 34 27 16 21 53 42 62 58 66 62 60 64 70 68 64 55
32 32 33 34 35 35 35 33 32 33 33 33 33 35 38 40 42 43 41 40 40 39 40 42 43 30 35 60 39 34 41 60 53 29 29 32 59 29 49 46 63 64 51 47 48 53 53
32 32 33 35 36 37 38 38 38 36 36 35 35 36 40 43 44 42 41 43 42 40 37 35 34 21 29 31 36 45 44 60 43 49 39 31 35 54 43 36 32 41 51 49 50 46 53
34 34 35 35 37 38 38 39 41 40 39 39 40 37 40 40 40 42 43 41 37 32 28 26 14 22 31 22 22 28 30 41 36 38 37 35 33 45 37 39 35 49 52 64 50 44 36
35 36 38 40 41 43 44 44 44 42 41 40 40 40 43 47 46 48 47 38 27 18 11 4 12 15 31 26 10 14 19 20 29 34 34 44 36 29 39 41 58 50 53 54 55 41 30
38 38 40 42 44 47 48 47 47 44 43 44 44 46 49 50 49 47 41 29 14 14 12 28 24 37 44 42 32 28 15 12 23 41 47 57 41 55 84 69 54 51 59 60 46 44 43
42 42 44 46 48 49 49 47 47 45 45 45 46 47 49 50 50 47 21 19 10 13 28 43 61 65 67 59 44 46 27 22 28 44 52 40 60 95 58 57 59 58 58 61 48 46 46
45 45 45 48 49 50 48 45 46 46 47 47 48 49 51 51 48 23 25 12 7 21 18 41 32 37 33 25 39 54 42 51 37 40 57 68 86 53 64 60 61 62 61 50 55 40 45
44 46 48 51 53 52 51 45 44 48 50 51 52 53 55 51 20 20 18 7 13 18 11 13 9 8 7 11 13 34 27 55 40 49 48 63 69 58 64 70 67 62 50 49 51 41 46
46 46 48 51 53 53 50 47 45 48 52 54 56 56 59 41 30 17 13 11 12 7 12 11 13 5 1 13 21 12 18 45 56 46 32 62 58 65 62 87 61 66 44 46 49 45 49
44 47 48 51 54 55 53 49 47 51 56 58 57 60 43 16 12 15 17 15 6 9 19 2 8 5 9 3 9 21 21 26 41 54 47 56 41 49 84 41 59 44 33 36 36 35 42
43 46 49 52 55 56 56 54 52 56 60 62 58 41 23 16 10 18 6 9 11 16 14 0 11 14 25 3 17 10 19 22 25 41 53 43 58 39 41 57 51 53 43 21 26 29 34
43 46 49 52 55 56 56 57 57 58 60 62 55 16 18 11 18 10 2 7 15 8 10 30 21 34 33 8 5 16 28 24 29 48 40 42 39 62 43 61 44 60 54 27 37 31 29
45 48 50 52 54 56 57 57 60 58 60 62 43 6 18 23 13 6 8 10 14 20 16 20 30 32 29 8 12 13 7 11 19 40 38 36 56 60 44 53 55 59 48 48 22 20 15
47 50 51 52 53 56 57 57 60 59 59 61 26 4 22 18 5 3 6 9 10 18 26 27 31 22 28 21 17 18 5 5 24 27 27 12 23 49 69 48 54 56 47 41 30 35 32
48 50 52 54 54 56 57 55 56 60 57 57 16 6 17 17 6 4 7 10 19 23 25 14 21 25 29 29 31 25 3 8 9 26 24 27 16 32 55 47 55 36 47 38 35 26 29
49 50 52 55 56 56 54 54 56 54 55 47 16 5 13 10 6 3 9 18 23 22 21 17 17 19 23 23 23 10 3 7 16 17 15 7 13 24 52 49 49 55 43 53 25 40 21
50 51 53 55 56 55 52 55 54 49 47 40 21 8 11 14 7 9 13 19 10 24 21 14 20 11 22 24 12 9 5 15 22 10 10 7 18 21 29 43 42 54 46 52 34 29 39
51 52 55 56 54 51 52 56 53 43 36 25 13 7 6 6 6 15 20 14 18 19 16 28 21 24 22 21 16 14 18 15 14 13 14 14 16 32 13 43 30 50 50 52 45 21 25
53 54 57 56 50 49 58 58 52 41 28 16 10 5 8 7 9 17 27 18 25 17 16 23 7 11 21 14 32 15 16 23 9 13 12 7 24 36 26 12 13 23 49 47 52 41 32
54 55 56 51 48 55 62 63 47 33 26 10 11 10 13 32 20 18 11 15 20 22 13 20 20 30 29 28 29 35 30 18 4 9 11 7 9 26 33 26 15 14 17 49 43 47 38
56 56 56 48 48 58 64 63 50 27 21 6 8 10 12 18 11 14 11 15 26 31 23 18 27 31 32 24 30 40 38 35 30 25 23 9 8 17 37 32 12 22 26 34 42 41 40
57 56 57 51 47 57 66 65 52 23 17 16 19 14 8 12 16 18 26 33 30 30 28 41 37 19 17 45 54 45 47 46 41 34 31 18 14 12 21 27 26 18 15 26 29 39 42
56 57 57 56 48 53 65 68 56 21 15 17 19 13 8 12 25 30 23 26 36 30 27 31 25 13 37 29 14 14 10 18 31 36 31 26 13 8 10 23 20 14 16 6 20 20 12
53 57 58 59 52 46 61 63 62 26 13 17 19 19 17 12 5 36 37 30 19 21 17 15 28 30 16 6 9 11 6 5 3 3 25 24 21 8 10 28 28 20 16 12 9 18 17
52 55 57 61 57 43 59 60 58 38 12 18 25 23 18 15 34 13 9 20 16 14 12 31 20 13 7 5 6 8 5 6 5 5 25 19 12 14 12 15 13 21 19 8 22 8 19
54 56 57 56 59 45 58 61 57 45 17 16 18 23 22 17 43 37 31 28 17 19 6 22 19 2 6 5 7 8 8 8 8 5 14 15 13 9 6 11 10 33 8 8 15 16 20
59 58 60 55 55 51 51 61 58 47 25 16 21 23 21 31 35 45 37 27 27 42 39 10 12 13 5 6 6 5 5 4 8 2 9 6 1 3 4 7 8 19 17 16 15 17 25
Wind_Direction_850mb
11 7 2 357 353 349 346 347 341 341 337 336 330 329 325 322 318 315 315 315 315 314 313 308 305 310 312 245 239 273 222 210 228 249 218 205 211 218 228 238 244 243 249 252 252 263 269
11 8 5 5 1 356 355 354 355 345 343 341 338 334 329 324 319 315 312 310 304 308 309 304 296 295 283 252 253 241 234 218 238 240 224 211 222 227 239 238 243 250 250 249 254 255 260
14 13 15 16 15 10 8 6 359 354 348 344 342 337 333 330 326 322 317 309 307 306 301 298 295 285 263 253 261 267 242 238 242 235 225 216 213 217 228 249 249 253 253 254 245 250 253
20 20 18 16 11 10 5 1 355 351 348 346 342 338 334 333 330 326 321 315 312 303 298 290 283 249 260 285 269 262 251 251 251 237 227 218 218 231 239 252 261 242 239 246 233 229 243
19 17 14 14 9 9 4 359 355 351 349 348 344 339 334 333 331 327 325 318 311 301 293 284 244 217 274 269 258 260 252 249 239 239 226 222 225 225 226 233 246 226 234 231 242 238 242
19 17 16 15 12 8 4 0 357 351 347 344 342 338 336 334 331 331 331 326 316 302 299 213 234 232 246 248 261 279 277 246 232 211 211 212 211 214 223 214 227 222 229 245 257 234 224
19 20 20 12 8 4 1 359 359 357 350 344 339 334 331 330 329 331 338 345 303 251 260 255 272 245 274 277 280 269 264 229 216 215 206 195 201 214 218 219 238 249 245 247 237 243 244
22 21 15 7 3 358 356 356 357 356 354 352 347 340 333 327 328 332 344 340 321 315 295 278 263 262 262 268 276 266 248 226 199 218 208 189 214 222 218 224 227 239 245 246 249 239 236
25 23 17 9 4 359 353 351 353 353 351 349 346 343 337 329 328 338 333 302 293 327 266 288 264 260 261 246 250 256 237 227 231 230 212 214 220 218 219 222 226 227 234 240 251 255 252
25 22 17 11 5 1 357 352 349 349 347 343 339 336 333 327 339 312 317 270 294 316 282 256 192 206 200 216 234 247 238 221 224 236 229 229 234 217 222 222 218 229 219 240 255 253 251
19 16 11 7 4 0 357 355 350 347 344 340 335 332 324 320 296 307 285 295 299 280 282 102 139 100 154 240 331 89 204 222 232 222 223 224 227 226 221 223 215 236 228 234 241 249 260
14 11 9 5 2 2 360 357 352 347 343 341 339 333 330 349 279 287 284 286 269 231 245 224 155 285 247 212 308 350 289 224 241 241 241 237 223 224 232 219 221 223 218 226 237 245 245
10 8 5 2 360 360 360 356 350 348 347 348 346 347 11 14 335 307 279 252 232 247 34 197 326 320 307 342 307 328 341 262 219 211 229 228 240 235 236 211 205 202 194 202 220 225 246
5 4 2 359 356 356 355 355 352 348 348 349 349 12 0 350 325 329 235 206 254 307 270 333 323 302 281 9 304 287 327 320 217 231 219 222 223 223 213 211 188 193 190 203 215 231 242
358 359 358 355 353 351 351 353 352 347 350 352 355 339 8 343 359 149 234 234 335 355 350 315 308 274 273 215 308 277 340 304 298 231 239 223 231 193 221 211 197 190 208 212 239 230 270
357 357 355 353 352 350 349 352 353 348 350 351 352 359 1 352 10 215 281 310 322 330 312 296 285 287 297 310 308 313 72 55 315 339 326 268 256 224 199 206 209 196 194 197 219 234 228
356 355 354 352 352 350 348 351 352 350 350 353 357 299 356 20 13 338 315 312 323 326 324 307 302 294 289 291 282 287 206 133 283 320 301 283 256 223 185 200 190 191 197 212 209 227 209
352 352 352 350 350 350 348 350 351 350 351 2 357 324 344 353 313 183 323 333 323 319 327 292 294 289 286 293 294 270 270 209 206 301 302 274 286 271 198 205 216 201 203 199 197 198 247
352 353 351 349 349 348 347 349 351 350 353 353 343 299 330 354 342 337 326 301 290 310 337 331 306 318 305 298 291 301 335 199 196 229 306 357 232 224 212 199 207 195 207 195 211 201 206
355 355 353 350 350 351 350 350 350 350 354 351 340 329 337 8 337 333 331 306 327 329 314 318 301 298 332 314 293 286 309 43 253 256 260 252 251 253 190 195 191 202 203 192 206 205 187
357 357 354 352 356 356 350 349 352 351 5 10 357 358 325 306 317 320 297 295 305 353 323 312 282 313 339 315 316 297 354 312 314 202 249 279 242 227 259 313 300 275 206 205 207 217 226
359 357 357 356 357 354 352 349 352 349 357 11 348 338 319 294 289 301 292 305 317 341 314 306 306 326 316 301 295 295 310 309 324 307 297 279 302 263 250 238 240 243 247 206 208 211 227
359 359 357 354 354 354 352 350 354 352 352 322 305 307 290 293 290 308 303 320 312 316 294 287 312 309 300 320 320 300 290 287 275 286 289 294 308 240 233 213 228 230 209 222 210 212 217
357 358 357 352 346 351 351 350 351 349 331 300 302 306 273 287 319 307 304 298 303 304 288 292 293 293 298 314 306 276 253 252 254 254 250 261 304 270 240 179 218 90 40 205 217 213 222
356 355 356 353 343 342 349 349 349 341 321 306 296 290 270 283 310 297 327 319 308 302 291 288 310 283 300 303 286 277 212 236 236 231 229 228 258 279 217 204 189 106 35 348 200 161 10
353 352 353 351 347 339 345 348 349 342 319 305 290 286 272 295 269 320 305 302 299 314 308 290 322 321 317 277 262 271 310 331 211 284 197 208 227 298 249 211 201 67 4 314 278 185 22
349 349 350 349 347 341 345 347 348 344 311 288 293 289 262 264 280 294 292 303 296 295 291 303 337 323 339 296 283 284 281 304 309 256 169 181 213 230 266 236 101 8 345 168 207 77 348
342 347 347 347 347 339 344 346 345 340 316 290 290 283 264 260 284 279 285 281 276 270 271 316 313 42 299 293 310 352 343 323 296 100 173 178 191 182 232 245 179 3 55 331 16 348 343
340 338 344 347 344 341 336 342 340 337 319 279 293 281 279 259 273 295 288 291 275 263 261 274 290 311 285 295 325 307 295 281 297 201 180 235 44 332 295 39 63 21 58 42 4 347 351